sat.trackr.live / text

‹ back to catalog

STARLINK-35988

NORAD 66615 · 2025-270AD

PAYLOAD ACTIVE UNKNOWN

§ Identity

Operator
Country
US
Launch date
2025-11-22
Launch site
AFETR
Launch vehicle
Mass (kg)
RCS (m²)

Purposes: comms

External: N2YO · Heavens-Above · Gunter

§ Orbital elements

Epoch: 2026-09-20T09:18:00.008640Z

Period
94.27 min
Inclination
43.0001°
Eccentricity
0.0001998
Mean motion
15.27586937 rev/d
Perigee alt
481.7 km
Apogee alt
484.4 km
Semi-major
6,861.2 km
B*
3.9126e-4
RAAN
36.5172°
Arg perigee
271.8911°
Mean anomaly
88.1712°
Rev number
4,732

§ Raw data

STARLINK-359881 66615U 25270AD  26263.38750010  .00010522  00000+0  39126-3 0  99962 66615  43.0001  36.5172 0001998 271.8911  88.1712 15.27586937 47320

JSON: /api/v1/satellites/66615 · /tle

For live sub-satellite position, see the globe view (requires WebGL).

§ Visibility from observer

Set your observer location to see the next 7 days of passes ≥ 10°. The values pass through the URL so the page stays shareable.

No JS? Fill the form by hand. The geolocation button needs JavaScript.